Weather History for Middletown, OH

Change the Weather History Date:

Friday, November 23, 2012

  Actual Average (KDAY) Record (KDAY)
Temperature  
Mean Temperature 44 °F 40 °F  
Max Temperature 55 °F 47 °F 72 °F (1931)
Min Temperature 32 °F 32 °F 13 °F (1950)
Degree Days  
Heating Degree Days 22 25  
Month to date heating degree days 473  
Since 1 July heating degree days 920  
Cooling Degree Days 0 0  
Month to date cooling degree days 0  
Year to date cooling degree days 891  
Moisture  
Dew Point 35 °F    
Average Humidity 72    
Maximum Humidity 96    
Minimum Humidity 57    
Precipitation  
Precipitation 0.00 in 0.12 in 1.26 in (1983)
Month to date precipitation 2.59  
Year to date precipitation 37.13  
Snow  
Snow 0.00 in 0.00 in 1.40 in (1956)
Month to date snowfall 0.3  
Since 1 July snowfall 0.7  
Since 1 September snowfall 0.7  
Snow Depth -    
Sea Level Pressure  
Sea Level Pressure 30.06 in    
Wind  
Wind Speed 13 mph (West)    
Max Wind Speed 25 mph    
Max Gust Speed 36 mph    
Visibility 10 miles    
Events Rain    
T = Trace of Precipitation, MM = Missing Value Source: NWS Daily Summary

Daily Weather History Graph

Daily Weather History Graph

Search for Another Location

Airport:

Trip Planner

Search our weather history database for the weather conditions in past years. The results will help you decide how hot, cold, wet, or windy it might be!

Date:

Astronomy

Nov. 23, 2012 Rise Set
Actual Time 7:31 AM EST 5:16 PM EST
Civil Twilight 7:01 AM EST 5:46 PM EST
Nautical Twilight 6:28 AM EST 6:19 PM EST
Astronomical Twilight 5:56 AM EST 6:51 PM EST
Moon 2:30 PM EST (11/23) 2:50 AM EST (11/23)
Length of Visible Light 10h 44m
Length of Day
9h 45m
Waxing Gibbous, 79% of the Moon is Illuminated
Nov 23
Waxing Gibbous
Nov 28
Full
Dec 6
Last Quarter
Dec 13
New
Dec 20
First Quarter

Hourly Weather History & Observations

Time (EST) Temp. Windchill Dew Point Humidity Pressure Visibility Wind Dir Wind Speed Gust Speed Precip Events Conditions
12:15 AM 52.7 °F - 46.9 °F 81% 30.00 in 10.0 mi SSW 9.2 mph - N/A   Clear
12:35 AM 52.7 °F - 46.0 °F 78% 30.00 in 10.0 mi SSW 8.1 mph - N/A   Clear
12:55 AM 52.7 °F - 45.9 °F 78% 30.00 in 10.0 mi SSW 8.1 mph - N/A   Scattered Clouds
1:15 AM 52.7 °F - 45.5 °F 76% 29.99 in 10.0 mi SW 12.7 mph 17.3 mph N/A Rain Light Rain
1:35 AM 53.8 °F - 45.5 °F 74% 29.98 in 10.0 mi SW 9.2 mph - N/A   Overcast
1:55 AM 55.4 °F - 46.0 °F 71% 29.98 in 10.0 mi SW 10.4 mph - N/A   Overcast
2:15 AM 55.4 °F - 45.0 °F 68% 29.97 in 10.0 mi SW 10.4 mph - N/A   Overcast
2:35 AM 55.4 °F - 44.2 °F 66% 29.97 in 10.0 mi SW 13.8 mph - N/A   Overcast
2:55 AM 55.4 °F - 44.1 °F 66% 29.96 in 10.0 mi SW 15.0 mph 20.7 mph N/A   Overcast
3:15 AM 55.4 °F - 43.9 °F 65% 29.96 in 10.0 mi SW 15.0 mph - N/A   Overcast
3:35 AM 55.4 °F - 44.2 °F 66% 29.96 in 10.0 mi SW 15.0 mph - N/A   Overcast
3:55 AM 55.4 °F - 45.1 °F 68% 29.95 in 10.0 mi SW 11.5 mph - N/A   Overcast
4:15 AM 55.4 °F - 44.8 °F 67% 29.95 in 10.0 mi SW 12.7 mph - N/A   Overcast
4:35 AM 55.4 °F - 45.5 °F 69% 29.94 in 10.0 mi SW 9.2 mph - N/A   Overcast
4:55 AM 55.4 °F - 45.5 °F 69% 29.94 in 10.0 mi SW 10.4 mph - N/A   Overcast
5:15 AM 55.4 °F - 47.3 °F 74% 29.95 in 10.0 mi SW 11.5 mph - N/A Rain Rain
5:35 AM 52.7 °F - 48.9 °F 87% 29.94 in 10.0 mi WSW 9.2 mph - N/A Rain Rain
5:55 AM 52.7 °F - 51.3 °F 95% 29.94 in 10.0 mi WSW 10.4 mph - N/A   Light Drizzle
6:15 AM 52.7 °F - 51.6 °F 96% 29.95 in 10.0 mi WSW 10.4 mph - N/A   Overcast
6:35 AM 52.7 °F - 50.9 °F 94% 29.95 in 10.0 mi West 12.7 mph 18.4 mph N/A   Overcast
6:55 AM 52.7 °F - 50.4 °F 92% 29.96 in 10.0 mi WNW 12.7 mph 18.4 mph N/A   Overcast
7:15 AM 52.3 °F - 46.9 °F 82% 29.98 in 10.0 mi West 17.3 mph 25.3 mph N/A   Overcast
7:35 AM 47.7 °F - 41.5 °F 79% 29.99 in 10.0 mi WNW 13.8 mph 25.3 mph N/A   Overcast
7:55 AM 47.7 °F - 41.9 °F 80% 30.00 in 10.0 mi WNW 16.1 mph 23.0 mph N/A   Overcast
8:15 AM 45.1 °F 39.1 °F 40.5 °F 84% 30.01 in 10.0 mi WNW 12.7 mph 17.3 mph N/A   Overcast
8:35 AM 45.1 °F 39.5 °F 41.5 °F 87% 30.00 in 10.0 mi West 11.5 mph - N/A   Overcast
8:55 AM 45.1 °F 38.4 °F 40.5 °F 84% 30.01 in 10.0 mi WNW 15.0 mph 24.2 mph N/A   Overcast
9:15 AM 41.4 °F 33.3 °F 35.4 °F 79% 30.02 in 10.0 mi West 16.1 mph 23.0 mph N/A   Scattered Clouds
9:35 AM 43.9 °F 35.9 °F 36.5 °F 75% 30.03 in 10.0 mi West 18.4 mph 24.2 mph N/A   Clear
9:55 AM 45.1 °F 38.1 °F 36.5 °F 72% 30.03 in 10.0 mi West 16.1 mph 24.2 mph N/A   Clear
10:15 AM 45.5 °F 38.6 °F 36.0 °F 69% 30.03 in 10.0 mi WNW 16.1 mph 24.2 mph N/A   Clear
10:35 AM 47.5 °F - 37.0 °F 67% 30.04 in 10.0 mi West 16.1 mph 26.5 mph N/A   Clear
10:55 AM 45.5 °F 38.1 °F 35.4 °F 68% 30.05 in 10.0 mi West 18.4 mph 32.2 mph N/A   Scattered Clouds
11:15 AM 47.7 °F - 36.3 °F 65% 30.05 in 10.0 mi West 13.8 mph 25.3 mph N/A   Scattered Clouds
11:35 AM 46.6 °F - 35.1 °F 64% 30.04 in 10.0 mi West 18.4 mph 32.2 mph N/A   Mostly Cloudy
11:55 AM 47.7 °F - 35.4 °F 63% 30.03 in 10.0 mi WNW 21.9 mph 31.1 mph N/A   Overcast
12:15 PM 47.1 °F - 33.6 °F 59% 30.03 in 10.0 mi West 24.2 mph 33.4 mph N/A   Overcast
12:35 PM 45.1 °F 37.9 °F 32.5 °F 61% 30.03 in 10.0 mi West 17.3 mph 33.4 mph N/A   Overcast
12:55 PM 43.5 °F 35.8 °F 32.0 °F 64% 30.03 in 10.0 mi West 17.3 mph 31.1 mph N/A   Overcast
1:15 PM 45.1 °F 37.6 °F 30.7 °F 57% 30.02 in 10.0 mi West 18.4 mph 35.7 mph N/A   Overcast
1:35 PM 40.8 °F 34.1 °F 30.9 °F 68% 30.03 in 10.0 mi WNW 11.5 mph 27.6 mph N/A   Mostly Cloudy
1:55 PM 40.5 °F 31.2 °F 30.6 °F 68% 30.04 in 10.0 mi WNW 19.6 mph 26.5 mph N/A   Mostly Cloudy
2:15 PM 40.1 °F 30.7 °F 30.2 °F 68% 30.04 in 10.0 mi WNW 19.6 mph 32.2 mph N/A   Overcast
2:35 PM 40.8 °F 30.4 °F 28.2 °F 61% 30.04 in 10.0 mi West 25.3 mph 29.9 mph N/A   Mostly Cloudy
2:55 PM 40.5 °F 31.2 °F 28.2 °F 62% 30.05 in 10.0 mi West 19.6 mph 31.1 mph N/A   Mostly Cloudy
3:15 PM 40.1 °F 30.5 °F 28.2 °F 63% 30.05 in 10.0 mi West 20.7 mph 35.7 mph N/A   Overcast
3:35 PM 39.2 °F 30.8 °F 28.4 °F 65% 30.06 in 10.0 mi West 15.0 mph 26.5 mph N/A   Overcast
3:55 PM 38.8 °F 29.7 °F 28.4 °F 66% 30.08 in 10.0 mi West 17.3 mph 24.2 mph N/A   Overcast
4:15 PM 38.8 °F 28.3 °F 27.9 °F 65% 30.09 in 10.0 mi West 23.0 mph 29.9 mph N/A   Overcast
4:35 PM 38.8 °F 29.7 °F 28.0 °F 65% 30.10 in 10.0 mi West 17.3 mph 31.1 mph N/A   Overcast
4:55 PM 37.6 °F 27.7 °F 27.9 °F 68% 30.11 in 10.0 mi WNW 18.4 mph 26.5 mph N/A   Overcast
5:15 PM 37.6 °F 28.1 °F 28.2 °F 69% 30.12 in 10.0 mi NW 17.3 mph 25.3 mph N/A   Overcast
5:35 PM 37.4 °F 29.8 °F 28.4 °F 70% 30.13 in 10.0 mi WNW 11.5 mph 23.0 mph N/A   Overcast
5:55 PM 35.1 °F 25.2 °F 26.2 °F 70% 30.15 in 10.0 mi NW 16.1 mph 21.9 mph N/A   Overcast
6:15 PM 35.1 °F 25.2 °F 26.1 °F 70% 30.16 in 10.0 mi WNW 16.1 mph 26.5 mph N/A   Overcast
6:35 PM 35.1 °F 25.9 °F 26.6 °F 71% 30.17 in 10.0 mi NW 13.8 mph 21.9 mph N/A   Overcast
6:55 PM 33.4 °F 24.3 °F 25.0 °F 71% 30.18 in 10.0 mi WNW 12.7 mph 21.9 mph N/A   Overcast
7:15 PM 32.5 °F 23.2 °F 23.9 °F 70% 30.19 in 10.0 mi NW 12.7 mph 24.2 mph N/A   Overcast
7:35 PM 32.5 °F 21.5 °F 23.5 °F 69% 30.20 in 10.0 mi WNW 17.3 mph 23.0 mph N/A   Overcast
7:55 PM 32.5 °F 23.7 °F 23.9 °F 70% 30.20 in 10.0 mi NW 11.5 mph 16.1 mph N/A   Overcast
8:15 PM 32.5 °F 23.7 °F 23.9 °F 70% 30.20 in 10.0 mi NW 11.5 mph 20.7 mph N/A   Overcast
8:35 PM 32.5 °F 23.2 °F 23.9 °F 70% 30.20 in 10.0 mi NNW 12.7 mph 18.4 mph N/A   Overcast
8:55 PM 32.5 °F 22.3 °F 23.7 °F 70% 30.20 in 10.0 mi WNW 15.0 mph 20.7 mph N/A   Overcast
9:15 PM 32.5 °F 24.8 °F 23.9 °F 70% 30.20 in 10.0 mi NW 9.2 mph 17.3 mph N/A   Overcast
9:35 PM 32.5 °F 22.7 °F 23.9 °F 70% 30.20 in 10.0 mi NW 13.8 mph - N/A   Overcast
9:55 PM 32.5 °F 23.2 °F 23.9 °F 70% 30.21 in 10.0 mi NW 12.7 mph 18.4 mph N/A   Overcast
10:15 PM 32.5 °F 24.2 °F 23.9 °F 70% 30.21 in 10.0 mi NNW 10.4 mph 18.4 mph N/A   Overcast
10:35 PM 32.5 °F 24.8 °F 23.9 °F 70% 30.20 in 10.0 mi NW 9.2 mph - N/A   Overcast
10:55 PM 32.5 °F 24.8 °F 24.1 °F 71% 30.20 in 10.0 mi NW 9.2 mph 19.6 mph N/A   Overcast
11:15 PM 32.5 °F 23.7 °F 23.9 °F 70% 30.20 in 10.0 mi WNW 11.5 mph 19.6 mph N/A   Overcast
11:35 PM 32.5 °F 25.5 °F 24.3 °F 72% 30.20 in 10.0 mi NW 8.1 mph - N/A   Overcast
11:55 PM 32.5 °F - 25.3 °F 75% 30.20 in 10.0 mi Calm Calm - N/A   Overcast